• In Hungary
  • List of Countries
  • For 7 days
  • Water Temperature
  • Satellite Maps
  • Weather Map
  • News
  • Weather Widgets
  • user-avatar
    Login

    Hourly Weather Newcastle

    Today, 24 November, Friday

    Time Temperature Precipitation Wind Pressure Humidity
    00:00 +4°C° 0 mm 2 mps 740 mmHg 72%
    01:00 +4°C° 0 mm 2 mps 740 mmHg 72%
    02:00 +4°C° 0 mm 2 mps 740 mmHg 71%
    03:00 +4°C° 0 mm 2 mps 740 mmHg 71%
    04:00 +4°C° 0 mm 2 mps 741 mmHg 71%
    05:00 +3°C° 0 mm 2 mps 741 mmHg 71%
    06:00 +3°C° 0 mm 2 mps 742 mmHg 72%
    07:00 +3°C° 0 mm 2 mps 742 mmHg 72%
    08:00 +3°C° 0 mm 2 mps 743 mmHg 73%
    09:00 +3°C° 0 mm 2 mps 743 mmHg 74%
    10:00 +4°C° 0 mm 2 mps 744 mmHg 70%
    11:00 +4°C° 0 mm 3 mps 744 mmHg 67%
    12:00 +5°C° 0 mm 3 mps 744 mmHg 63%
    13:00 +5°C° 0 mm 3 mps 745 mmHg 65%
    14:00 +4°C° 0 mm 3 mps 745 mmHg 67%
    15:00 +4°C° 0 mm 3 mps 745 mmHg 68%
    16:00 +4°C° 0 mm 2 mps 745 mmHg 71%
    17:00 +3°C° 0 mm 2 mps 745 mmHg 73%
    18:00 +3°C° 0 mm 2 mps 745 mmHg 76%
    19:00 +2°C° 0.1 mm 2 mps 745 mmHg 77%
    20:00 +2°C° 0.1 mm 2 mps 745 mmHg 77%
    21:00 +2°C° 0.1 mm 2 mps 745 mmHg 77%
    22:00 +2°C° 0 mm 2 mps 746 mmHg 78%
    23:00 +1°C° 0 mm 3 mps 746 mmHg 78%

    Tomorrow, 25 November, Saturday

    Time Temperature Precipitation Wind Pressure Humidity
    00:00 0°C° 0 mm 3 mps 746 mmHg 78%
    01:00 0°C° 0.1 mm 3 mps 746 mmHg 77%
    02:00 0°C° 0.1 mm 3 mps 746 mmHg 76%
    03:00 0°C° 0.1 mm 3 mps 746 mmHg 76%
    04:00 0°C° 0.1 mm 3 mps 746 mmHg 76%
    05:00 0°C° 0.1 mm 3 mps 746 mmHg 76%
    06:00 0°C° 0.1 mm 3 mps 746 mmHg 76%
    07:00 0°C° 0.2 mm 3 mps 747 mmHg 76%
    08:00 0°C° 0.2 mm 4 mps 747 mmHg 75%
    09:00 0°C° 0.2 mm 4 mps 747 mmHg 75%
    10:00 +1°C° 0.1 mm 4 mps 747 mmHg 72%
    11:00 +2°C° 0.1 mm 5 mps 748 mmHg 68%
    12:00 +3°C° 0.1 mm 6 mps 748 mmHg 64%
    13:00 +2°C° 0.1 mm 5 mps 748 mmHg 66%
    14:00 +2°C° 0.1 mm 5 mps 749 mmHg 68%
    15:00 +2°C° 0.1 mm 5 mps 749 mmHg 70%
    16:00 +1°C° 0.1 mm 5 mps 749 mmHg 71%
    17:00 0°C° 0.1 mm 5 mps 750 mmHg 73%
    18:00 0°C° 0.1 mm 4 mps 750 mmHg 75%
    19:00 0°C° 0.1 mm 4 mps 750 mmHg 76%
    20:00 0°C° 0.1 mm 4 mps 751 mmHg 77%
    21:00 0°C° 0.1 mm 4 mps 751 mmHg 77%
    22:00 0°C° 0.1 mm 4 mps 751 mmHg 78%
    23:00 0°C° 0.1 mm 5 mps 752 mmHg 79%

    Day after tomorrow, 26 November, Sunday

    Time Temperature Precipitation Wind Pressure Humidity
    00:00 0°C° 0.1 mm 5 mps 752 mmHg 80%
    01:00 0°C° 0.2 mm 5 mps 752 mmHg 80%
    02:00 0°C° 0.2 mm 5 mps 752 mmHg 80%
    03:00 +1°C° 0.2 mm 5 mps 752 mmHg 80%
    04:00 0°C° 0.1 mm 5 mps 752 mmHg 80%
    05:00 0°C° 0.1 mm 5 mps 752 mmHg 80%
    06:00 0°C° 0.1 mm 5 mps 753 mmHg 80%
    07:00 0°C° 0.1 mm 5 mps 753 mmHg 79%
    08:00 0°C° 0.1 mm 5 mps 753 mmHg 78%
    09:00 +1°C° 0.1 mm 5 mps 753 mmHg 76%
    10:00 +2°C° 0.1 mm 5 mps 754 mmHg 73%
    11:00 +2°C° 0.1 mm 5 mps 754 mmHg 70%
    12:00 +3°C° 0.1 mm 5 mps 754 mmHg 67%
    13:00 +3°C° 0 mm 5 mps 754 mmHg 69%
    14:00 +3°C° 0 mm 5 mps 754 mmHg 71%
    15:00 +3°C° 0 mm 5 mps 753 mmHg 73%
    16:00 +3°C° 0 mm 4 mps 753 mmHg 76%
    17:00 +3°C° 0 mm 4 mps 753 mmHg 79%
    18:00 +2°C° 0 mm 3 mps 753 mmHg 82%
    19:00 +3°C° 0.2 mm 3 mps 753 mmHg 84%
    20:00 +3°C° 0.2 mm 3 mps 752 mmHg 86%
    21:00 +3°C° 0.2 mm 3 mps 752 mmHg 88%
    22:00 +3°C° 0.4 mm 3 mps 752 mmHg 90%
    23:00 +3°C° 0.4 mm 3 mps 751 mmHg 92%

    27 November, Monday

    Time Temperature Precipitation Wind Pressure Humidity
    00:00 +4°C° 0.4 mm 4 mps 750 mmHg 94%
    01:00 +4°C° 1.1 mm 4 mps 750 mmHg 94%
    02:00 +5°C° 1.1 mm 4 mps 749 mmHg 94%
    03:00 +5°C° 1.1 mm 4 mps 748 mmHg 94%
    04:00 +5°C° 0.5 mm 4 mps 748 mmHg 92%
    05:00 +5°C° 0.5 mm 5 mps 747 mmHg 90%
    06:00 +5°C° 0.5 mm 5 mps 747 mmHg 88%
    07:00 +5°C° 0.1 mm 5 mps 747 mmHg 88%
    08:00 +5°C° 0.1 mm 5 mps 747 mmHg 88%
    09:00 +5°C° 0.1 mm 5 mps 747 mmHg 87%
    10:00 +5°C° 0.1 mm 5 mps 747 mmHg 86%
    11:00 +5°C° 0.1 mm 6 mps 747 mmHg 84%
    12:00 +5°C° 0.1 mm 6 mps 747 mmHg 83%
    13:00 +5°C° 0.1 mm 6 mps 747 mmHg 82%
    14:00 +5°C° 0.1 mm 6 mps 746 mmHg 82%
    15:00 +5°C° 0.1 mm 6 mps 746 mmHg 81%
    16:00 +4°C° 0.1 mm 6 mps 746 mmHg 82%
    17:00 +5°C° 0.1 mm 5 mps 746 mmHg 82%
    18:00 +4°C° 0.1 mm 4 mps 746 mmHg 83%
    19:00 +4°C° 0.3 mm 4 mps 745 mmHg 84%
    20:00 +5°C° 0.3 mm 4 mps 745 mmHg 86%
    21:00 +5°C° 0.3 mm 4 mps 744 mmHg 87%
    22:00 +5°C° 0.1 mm 5 mps 744 mmHg 87%
    23:00 +5°C° 0.1 mm 5 mps 743 mmHg 87%

    28 November, Tuesday

    Time Temperature Precipitation Wind Pressure Humidity
    00:00 +5°C° 0.1 mm 5 mps 742 mmHg 87%
    01:00 +5°C° 0.3 mm 5 mps 741 mmHg 85%
    02:00 +3°C° 0.3 mm 5 mps 740 mmHg 82%
    03:00 +3°C° 0.3 mm 6 mps 739 mmHg 79%
    04:00 +3°C° 0.2 mm 6 mps 738 mmHg 79%
    05:00 +3°C° 0.2 mm 7 mps 738 mmHg 78%
    06:00 +2°C° 0.2 mm 8 mps 737 mmHg 78%
    07:00 +3°C° 0.4 mm 7 mps 737 mmHg 77%
    08:00 +3°C° 0.4 mm 6 mps 737 mmHg 77%
    09:00 +3°C° 0.4 mm 6 mps 736 mmHg 77%
    10:00 +3°C° 0.1 mm 6 mps 736 mmHg 74%
    11:00 +3°C° 0.1 mm 6 mps 736 mmHg 72%
    12:00 +4°C° 0.1 mm 6 mps 736 mmHg 70%
    13:00 +4°C° 0.2 mm 6 mps 736 mmHg 73%
    14:00 +3°C° 0.2 mm 7 mps 737 mmHg 76%
    15:00 +3°C° 0.2 mm 7 mps 737 mmHg 80%
    16:00 +3°C° 0.1 mm 6 mps 737 mmHg 80%
    17:00 +3°C° 0.1 mm 5 mps 737 mmHg 80%
    18:00 +2°C° 0.1 mm 5 mps 738 mmHg 81%
    19:00 +3°C° 0 mm 4 mps 738 mmHg 82%
    20:00 +1°C° 0 mm 4 mps 738 mmHg 83%
    21:00 +2°C° 0 mm 3 mps 738 mmHg 84%
    22:00 +2°C° 0.1 mm 3 mps 738 mmHg 85%
    23:00 +2°C° 0.1 mm 3 mps 738 mmHg 86%

    29 November, Wednesday

    Time Temperature Precipitation Wind Pressure Humidity
    00:00 +1°C° 0.1 mm 4 mps 738 mmHg 87%
    01:00 +1°C° 0.2 mm 4 mps 737 mmHg 87%
    02:00 +1°C° 0.2 mm 4 mps 737 mmHg 87%
    03:00 +2°C° 0.2 mm 5 mps 737 mmHg 88%
    04:00 +2°C° 0.2 mm 5 mps 737 mmHg 87%
    05:00 +2°C° 0.2 mm 5 mps 737 mmHg 87%
    06:00 +3°C° 0.2 mm 6 mps 737 mmHg 87%
    07:00 +3°C° 0.2 mm 6 mps 738 mmHg 87%
    08:00 +3°C° 0.2 mm 6 mps 738 mmHg 86%
    09:00 +3°C° 0.2 mm 6 mps 739 mmHg 85%
    10:00 +3°C° 0.1 mm 6 mps 739 mmHg 82%
    11:00 +4°C° 0.1 mm 7 mps 740 mmHg 80%
    12:00 +4°C° 0.1 mm 7 mps 740 mmHg 77%
    13:00 +4°C° 0.1 mm 7 mps 740 mmHg 76%
    14:00 +4°C° 0.1 mm 7 mps 741 mmHg 75%
    15:00 +4°C° 0.1 mm 7 mps 741 mmHg 74%
    16:00 +3°C° 0 mm 7 mps 742 mmHg 75%
    17:00 +2°C° 0 mm 7 mps 742 mmHg 76%
    18:00 +2°C° 0 mm 6 mps 743 mmHg 77%
    19:00 +1°C° 0 mm 6 mps 743 mmHg 78%
    20:00 +1°C° 0 mm 6 mps 743 mmHg 78%
    21:00 +1°C° 0 mm 6 mps 744 mmHg 78%
    22:00 -1°C° 0 mm 6 mps 744 mmHg 79%
    23:00 0°C° 0 mm 5 mps 744 mmHg 79%
    Show more